DW7999 Weather Reports


time (UTC)temp
C
wind
direction
speed
KPH
gust
KPH
rain 1hr
cm
rain 24hr
cm
rain mn
cm
humidity
%
barometer
mb
20260508185058 16 216 11.3 22.5 0.00 0.00 0.00 58 1010.8
20260508185020 16 189 0.0 3.2 0.00 0.00 0.00 60 1009.0
20260508184601 16 227 11.3 22.5 0.00 0.00 0.00 63 1010.8
20260508184517 16 213 0.0 4.8 0.00 0.00 0.00 64 1009.2
20260508184058 16 193 12.9 22.5 0.00 0.00 0.00 62 1010.9
20260508184016 16 231 0.0 4.8 0.00 0.00 0.00 63 1009.2
20260508183559 16 204 8.0 24.1 0.00 0.00 0.00 67 1010.9
20260508183514 16 228 0.0 3.2 0.00 0.00 0.00 69 1009.2
20260508183059 15 223 9.7 33.8 0.00 0.00 0.00 68 1011.0
20260508183015 15 225 0.0 4.8 0.00 0.00 0.00 68 1009.3
20260508182559 15 190 12.9 33.8 0.00 0.00 0.00 66 1010.9
20260508182518 15 220 0.0 4.8 0.00 0.00 0.00 67 1009.2
20260508182102 15 248 11.3 29.0 0.00 0.00 0.00 67 1011.0
20260508182013 16 189 0.0 6.4 0.00 0.00 0.00 67 1009.3
20260508181559 15 182 9.7 29.0 0.00 0.00 0.00 68 1011.0
20260508181513 15 202 0.0 6.4 0.00 0.00 0.00 69 1009.3
20260508181059 15 200 12.9 29.0 0.00 0.00 0.00 67 1011.1
20260508181013 15 169 0.0 8.0 0.00 0.00 0.00 66 1009.4
20260508180558 15 209 12.9 27.4 0.00 0.00 0.00 69 1011.3
20260508180514 15 239 0.0 8.0 0.00 0.00 0.00 68 1009.6
20260508180105 15 212 14.5 27.4 0.00 0.00 0.00 66 1011.3
20260508180017 16 190 0.0 9.7 0.00 0.00 0.00 67 1009.4
20260508175558 16 235 11.3 22.5 0.00 0.00 0.00 68 1011.3
20260508175512 16 213 0.0 9.7 0.00 0.00 0.00 69 1009.4
20260508175057 16 223 9.7 20.9 0.00 0.00 0.00 67 1011.0
20260508175012 16 200 0.0 1.6 0.00 0.00 0.00 69 1009.4
20260508174606 15 223 8.0 24.1 0.00 0.00 0.00 68 1011.3
20260508174510 15 228 0.0 1.6 0.00 0.00 0.00 68 1009.6
20260508174100 15 196 8.0 24.1 0.00 0.00 0.00 67 1011.4
20260508174009 15 228 0.0 1.6 0.00 0.00 0.00 67 1009.5
20260508173603 15 234 9.7 22.5 0.00 0.00 0.00 66 1011.5
20260508173509 15 227 0.0 1.6 0.00 0.00 0.00 66 1009.7
20260508173100 15 172 9.7 22.5 0.00 0.00 0.00 67 1011.5
20260508173008 15 240 0.0 3.2 0.00 0.00 0.00 69 1009.8
20260508172558 16 244 4.8 16.1 0.00 0.00 0.00 69 1011.6
20260508172507 16 242 0.0 1.6 0.00 0.00 0.00 72 1009.7
20260508172101 15 257 6.4 12.9 0.00 0.00 0.00 70 1011.7
20260508172006 15 188 0.0 1.6 0.00 0.00 0.00 70 1009.9
20260508171602 15 227 6.4 16.1 0.00 0.00 0.00 68 1011.8
20260508171520 15 196 0.0 1.6 0.00 0.00 0.00 69 1009.9
20260508171100 15 215 6.4 17.7 0.00 0.00 0.00 70 1011.9
20260508171004 15 269 0.0 3.2 0.00 0.00 0.00 68 1010.0
20260508170600 15 200 6.4 19.3 0.00 0.00 0.00 71 1012.1
20260508170503 15 242 0.0 3.2 0.00 0.00 0.00 72 1010.2
20260508170004 15 232 0.0 3.2 0.00 0.00 0.00 70 1010.4
20260508165600 15 238 6.4 17.7 0.00 0.00 0.00 71 1012.3
20260508165503 15 286 0.0 3.2 0.00 0.00 0.00 69 1010.6
20260508165100 15 243 4.8 17.7 0.00 0.00 0.00 69 1012.5
20260508165006 15 298 0.0 3.2 0.00 0.00 0.00 70 1010.6
20260508164605 15 231 8.0 17.7 0.00 0.00 0.00 69 1012.6
20260508164503 15 274 0.0 3.2 0.00 0.00 0.00 70 1010.7
20260508164100 15 286 4.8 14.5 0.00 0.00 0.00 69 1012.5
20260508164010 15 203 0.0 1.6 0.00 0.00 0.00 73 1010.8
20260508163603 14 212 0.0 1.6 0.00 0.00 0.00 71 1010.9
20260508163600 14 195 8.0 22.5 0.00 0.00 0.00 71 1012.7
20260508163105 14 263 0.0 1.6 0.00 0.00 0.00 72 1011.0
20260508163100 14 269 8.0 22.5 0.00 0.00 0.00 72 1012.8
20260508162600 14 250 8.0 16.1 0.00 0.00 0.00 73 1013.0
20260508162558 14 275 0.0 1.6 0.00 0.00 0.00 74 1011.1
20260508162101 13 281 0.0 0.0 0.00 0.00 0.00 72 1011.1
20260508162058 13 215 3.2 12.9 0.00 0.00 0.00 72 1013.0
20260508161602 14 237 3.2 11.3 0.00 0.00 0.00 73 1012.9
20260508161102 13 252 4.8 16.1 0.00 0.00 0.00 74 1012.9
20260508160600 13 256 4.8 16.1 0.00 0.00 0.00 72 1013.0
20260508160558 13 274 0.0 0.0 0.00 0.00 0.00 73 1011.2
20260508160058 13 227 3.2 11.3 0.00 0.00 0.00 73 1012.9
20260508160055 13 274 0.0 0.0 0.00 0.00 0.00 74 1011.2
20260508155604 13 262 1.6 11.3 0.00 0.00 0.00 72 1013.0
20260508155555 13 270 0.0 0.0 0.00 0.00 0.00 73 1011.2
20260508155101 13 234 3.2 11.3 0.00 0.00 0.00 72 1013.0
20260508155055 13 263 0.0 0.0 0.00 0.00 0.00 72 1011.2
20260508154614 13 270 1.6 12.9 0.00 0.00 0.00 70 1013.0
20260508154557 13 300 0.0 0.0 0.00 0.00 0.00 73 1011.1
20260508154100 13 173 4.8 12.9 0.00 0.00 0.00 70 1012.9
20260508154053 13 171 0.0 0.0 0.00 0.00 0.00 71 1011.1
20260508153601 13 306 3.2 9.7 0.00 0.00 0.00 72 1012.9
20260508153555 13 308 0.0 0.0 0.00 0.00 0.00 73 1011.2
20260508153100 13 188 0.0 8.0 0.00 0.00 0.00 78 1013.0
20260508153053 13 309 0.0 0.0 0.00 0.00 0.00 78 1011.2
20260508152600 12 236 0.0 8.0 0.00 0.00 0.00 78 1012.9
20260508152553 12 309 0.0 0.0 0.00 0.00 0.00 78 1011.1
20260508152100 12 49 3.2 8.0 0.00 0.00 0.00 76 1012.9
20260508152052 12 309 0.0 0.0 0.00 0.00 0.00 77 1011.1
20260508151601 12 303 0.0 6.4 0.00 0.00 0.00 77 1013.0
20260508151559 12 306 0.0 0.0 0.00 0.00 0.00 78 1011.1
20260508151100 12 347 1.6 6.4 0.00 0.00 0.00 76 1012.9
20260508151053 12 306 0.0 0.0 0.00 0.00 0.00 77 1011.1
20260508150601 12 28 3.2 8.0 0.00 0.00 0.00 77 1013.0
20260508150553 12 306 0.0 0.0 0.00 0.00 0.00 77 1011.1
20260508150110 13 0 1.6 8.0 0.00 0.00 0.00 73 1012.9
20260508150052 13 305 0.0 0.0 0.00 0.00 0.00 74 1011.1
20260508145559 12 281 1.6 6.4 0.00 0.00 0.00 74 1013.1
20260508145556 12 304 0.0 0.0 0.00 0.00 0.00 75 1011.2
20260508145100 12 233 0.0 3.2 0.00 0.00 0.00 74 1012.9
20260508145055 12 304 0.0 0.0 0.00 0.00 0.00 74 1011.1
20260508144606 12 0 0.0 9.7 0.00 0.00 0.00 72 1013.0
20260508144553 12 304 0.0 0.0 0.00 0.00 0.00 73 1011.2
20260508144100 12 0 1.6 9.7 0.00 0.00 0.00 73 1012.9
20260508144051 12 304 0.0 0.0 0.00 0.00 0.00 72 1011.1
20260508143600 12 251 1.6 11.3 0.00 0.00 0.00 73 1013.0
20260508143551 12 304 0.0 0.0 0.00 0.00 0.00 73 1011.2
20260508143134 13 229 4.8 11.3 0.00 0.00 0.00 72 1012.9
20260508143057 13 304 0.0 0.0 0.00 0.00 0.00 72 1011.1
20260508142600 13 229 1.6 11.3 0.00 0.00 0.00 72 1012.9
20260508142550 13 307 0.0 0.0 0.00 0.00 0.00 72 1011.1
20260508142100 13 244 6.4 16.1 0.00 0.00 0.00 72 1012.9
20260508142049 13 215 0.0 0.0 0.00 0.00 0.00 73 1011.2
20260508141607 13 205 6.4 17.7 0.00 0.00 0.00 73 1012.9
20260508141548 13 218 0.0 0.0 0.00 0.00 0.00 73 1011.2
20260508141101 13 214 8.0 19.3 0.00 0.00 0.00 75 1013.0
20260508141046 13 212 0.0 0.0 0.00 0.00 0.00 75 1011.2
20260508140557 13 224 8.0 19.3 0.00 0.00 0.00 74 1012.9
20260508140546 13 200 0.0 0.0 0.00 0.00 0.00 74 1011.1
20260508140118 13 215 3.2 12.9 0.00 0.00 0.00 74 1013.0
20260508140052 13 286 0.0 0.0 0.00 0.00 0.00 74 1011.1
20260508135601 12 228 4.8 14.5 0.00 0.00 0.00 72 1013.0
20260508135545 12 286 0.0 0.0 0.00 0.00 0.00 73 1011.2
20260508135101 12 281 3.2 14.5 0.00 0.00 0.00 73 1013.0
20260508135041 12 296 0.0 1.6 0.00 0.00 0.00 73 1011.1
20260508134558 12 234 4.8 12.9 0.00 0.00 0.00 74 1013.0
20260508134544 12 296 0.0 1.6 0.00 0.00 0.00 75 1011.1
20260508134100 12 227 3.2 12.9 0.00 0.00 0.00 75 1012.9
20260508134037 12 297 0.0 4.8 0.00 0.00 0.00 76 1011.1
20260508133603 12 285 4.8 12.9 0.00 0.00 0.00 75 1013.0
20260508133536 12 298 0.0 4.8 0.00 0.00 0.00 76 1011.1
20260508133108 11 268 3.2 11.3 0.00 0.00 0.00 74 1012.9
20260508133036 11 298 0.0 1.6 0.00 0.00 0.00 74 1011.1
20260508132600 11 263 0.0 12.9 0.00 0.00 0.00 74 1013.0
20260508132534 11 298 0.0 3.2 0.00 0.00 0.00 75 1011.0
20260508132101 11 304 1.6 16.1 0.00 0.00 0.00 74 1013.0
20260508132034 11 298 0.0 3.2 0.00 0.00 0.00 75 1011.1
20260508131605 11 275 0.0 16.1 0.00 0.00 0.00 74 1013.1
20260508131535 11 295 0.0 3.2 0.00 0.00 0.00 75 1011.2
20260508131058 11 259 4.8 16.1 0.00 0.00 0.00 75 1013.1
20260508131031 11 296 0.0 3.2 0.00 0.00 0.00 76 1011.3
20260508130600 11 254 4.8 16.1 0.00 0.00 0.00 75 1013.1
20260508130529 11 286 0.0 3.2 0.00 0.00 0.00 75 1011.3
20260508130041 11 290 0.0 3.2 0.00 0.00 0.00 75 1011.3
20260508125603 11 87 4.8 19.3 0.00 0.00 0.00 76 1013.1
20260508125530 11 286 0.0 0.0 0.00 0.00 0.00 77 1011.3
20260508125057 11 257 1.6 19.3 0.00 0.00 0.00 75 1013.2
20260508125028 11 284 0.0 0.0 0.00 0.00 0.00 76 1011.3
20260508124600 11 228 9.7 19.3 0.00 0.00 0.00 76 1013.2
20260508124533 11 257 0.0 0.0 0.00 0.00 0.00 76 1011.3
20260508124059 11 246 3.2 16.1 0.00 0.00 0.00 77 1013.2
20260508124024 11 257 0.0 0.0 0.00 0.00 0.00 77 1011.3
20260508123600 10 264 8.0 16.1 0.00 0.00 0.00 78 1013.4
20260508123523 10 257 0.0 0.0 0.00 0.00 0.00 78 1011.5
20260508123059 10 215 4.8 17.7 0.00 0.00 0.00 79 1013.4
20260508123028 10 257 0.0 1.6 0.00 0.00 0.00 79 1011.4
20260508122559 10 248 6.4 17.7 0.00 0.00 0.00 78 1013.4
20260508122521 10 265 0.0 1.6 0.00 0.00 0.00 78 1011.5
20260508122059 10 265 6.4 17.7 0.00 0.00 0.00 78 1013.3
20260508122020 10 259 0.0 0.0 0.00 0.00 0.00 78 1011.4
20260508121559 10 253 6.4 16.1 0.00 0.00 0.00 78 1013.1
20260508121520 10 259 0.0 1.6 0.00 0.00 0.00 79 1011.1
20260508121100 10 240 3.2 12.9 0.00 0.00 0.00 78 1013.0
20260508121020 10 260 0.0 1.6 0.00 0.00 0.00 78 1011.0
20260508120600 10 218 4.8 14.5 0.00 0.00 0.00 78 1012.9
20260508120518 10 260 0.0 1.6 0.00 0.00 0.00 79 1011.0
20260508120018 10 243 0.0 0.0 0.00 0.00 0.00 79 1011.0
20260508115603 9 234 3.2 11.3 0.00 0.00 0.00 79 1012.9
20260508115518 9 242 0.0 0.0 0.00 0.00 0.00 80 1010.9
20260508115100 9 241 3.2 19.3 0.00 0.00 0.00 79 1012.8
20260508115016 9 242 0.0 0.0 0.00 0.00 0.00 80 1010.9
20260508114557 9 273 4.8 19.3 0.00 0.00 0.00 79 1012.8
20260508114515 9 242 0.0 0.0 0.00 0.00 0.00 79 1010.9
20260508114100 9 226 6.4 12.9 0.00 0.00 0.00 78 1012.6
20260508114014 9 242 0.0 0.0 0.00 0.00 0.00 79 1010.8
20260508113600 9 213 6.4 14.5 0.00 0.00 0.00 79 1012.7
20260508113513 9 242 0.0 1.6 0.00 0.00 0.00 79 1010.9
20260508113058 9 229 8.0 14.5 0.00 0.00 0.00 79 1012.7
20260508113016 9 241 0.0 0.0 0.00 0.00 0.00 79 1010.9
20260508112600 9 243 4.8 12.9 0.00 0.00 0.00 79 1012.7
20260508112512 9 240 0.0 0.0 0.00 0.00 0.00 79 1010.9
20260508112102 9 215 6.4 12.9 0.00 0.00 0.00 78 1012.4
20260508112012 9 241 0.0 0.0 0.00 0.00 0.00 79 1010.6
20260508111605 9 224 6.4 16.1 0.00 0.00 0.00 78 1012.2
20260508111518 9 252 0.0 0.0 0.00 0.00 0.00 79 1010.5
20260508111100 9 219 6.4 16.1 0.00 0.00 0.00 78 1012.2
20260508111016 9 252 0.0 0.0 0.00 0.00 0.00 79 1010.5
20260508110559 9 242 4.8 19.3 0.00 0.00 0.00 78 1012.3
20260508110512 9 253 0.0 0.0 0.00 0.00 0.00 79 1010.5
20260508110111 9 210 8.0 19.3 0.00 0.00 0.00 78 1012.3
20260508110012 9 253 0.0 0.0 0.00 0.00 0.00 79 1010.4
20260508105600 9 240 4.8 12.9 0.00 0.00 0.00 78 1012.1
20260508105513 9 254 0.0 0.0 0.00 0.00 0.00 79 1010.3
20260508105100 9 238 3.2 12.9 0.00 0.00 0.00 79 1012.1
20260508105011 9 254 0.0 0.0 0.00 0.00 0.00 79 1010.4
20260508104612 9 230 4.8 14.5 0.00 0.00 0.00 78 1012.2
20260508104509 9 236 0.0 1.6 0.00 0.00 0.00 79 1010.3
20260508104100 9 217 6.4 14.5 0.00 0.00 0.00 78 1012.0
20260508104009 9 236 0.0 0.0 0.00 0.00 0.00 78 1010.4
20260508103600 9 198 4.8 14.5 0.00 0.00 0.00 78 1012.1
20260508103508 9 237 0.0 0.0 0.00 0.00 0.00 78 1010.3
20260508103102 10 213 6.4 14.5 0.00 0.00 0.00 77 1012.1
20260508103009 10 237 0.0 0.0 0.00 0.00 0.00 78 1010.4
20260508102600 10 213 4.8 9.7 0.00 0.00 0.00 78 1012.1
20260508102507 10 237 0.0 0.0 0.00 0.00 0.00 79 1010.5
20260508102103 10 212 4.8 9.7 0.00 0.00 0.00 79 1012.2
20260508102008 10 238 0.0 0.0 0.00 0.00 0.00 79 1010.4
20260508101602 9 234 4.8 11.3 0.00 0.00 0.00 79 1012.2
20260508101513 9 238 0.0 0.0 0.00 0.00 0.00 80 1010.6
20260508101059 9 219 3.2 12.9 0.00 0.00 0.00 80 1012.3
20260508101007 9 238 0.0 0.0 0.00 0.00 0.00 80 1010.4
20260508100600 9 269 6.4 14.5 0.00 0.00 0.00 80 1012.2
20260508100507 9 238 0.0 0.0 0.00 0.00 0.00 80 1010.5
20260508100008 9 237 0.0 0.0 0.00 0.00 0.00 81 1010.3
20260508095600 9 240 4.8 12.9 0.00 0.00 0.00 81 1012.2
20260508095507 9 221 0.0 0.0 0.00 0.00 0.00 82 1010.5
20260508095100 8 236 4.8 12.9 0.00 0.00 0.00 82 1012.2
20260508095007 8 220 0.0 0.0 0.00 0.00 0.00 82 1010.4
20260508094559 8 238 4.8 12.9 0.00 0.00 0.00 82 1012.2
20260508094519 8 220 0.0 0.0 0.00 0.00 0.00 82 1010.4
20260508094059 8 216 4.8 11.3 0.00 0.00 0.00 82 1012.2
20260508094006 8 220 0.0 0.0 0.00 0.00 0.00 83 1010.5
20260508093603 8 219 3.2 9.7 0.00 0.00 0.00 82 1012.1
20260508093507 8 220 0.0 0.0 0.00 0.00 0.00 83 1010.4
20260508093100 8 205 4.8 14.5 0.00 0.00 0.00 82 1012.2
20260508093009 8 221 0.0 0.0 0.00 0.00 0.00 83 1010.4
20260508092600 8 214 6.4 14.5 0.00 0.00 0.00 83 1012.2
20260508092509 8 221 0.0 0.0 0.00 0.00 0.00 83 1010.4
20260508092059 8 214 4.8 16.1 0.00 0.00 0.00 83 1012.2
20260508092004 8 220 0.0 0.0 0.00 0.00 0.00 83 1010.5
20260508091609 8 221 6.4 16.1 0.00 0.00 0.00 83 1012.3
20260508091504 8 220 0.0 0.0 0.00 0.00 0.00 83 1010.5
20260508091058 8 244 4.8 12.9 0.00 0.00 0.00 83 1012.3
20260508091005 8 220 0.0 0.0 0.00 0.00 0.00 83 1010.6
20260508090559 8 238 4.8 11.3 0.00 0.00 0.00 83 1012.3
20260508090506 8 220 0.0 0.0 0.00 0.00 0.00 83 1010.6
20260508090109 8 235 3.2 12.9 0.00 0.00 0.00 83 1012.4
20260508090005 8 220 0.0 0.0 0.00 0.00 0.00 83 1010.7
20260508085559 8 222 4.8 12.9 0.00 0.00 0.00 83 1012.3
20260508085508 8 220 0.0 0.0 0.00 0.00 0.00 83 1010.6
20260508085102 8 232 4.8 14.5 0.00 0.00 0.00 82 1012.3
20260508085005 8 220 0.0 0.0 0.00 0.00 0.00 83 1010.6
20260508084614 8 208 4.8 16.1 0.00 0.00 0.00 82 1012.3
20260508084503 8 220 0.0 0.0 0.00 0.00 0.00 83 1010.5
20260508084100 8 255 6.4 16.1 0.00 0.00 0.00 82 1012.2
20260508084002 8 220 0.0 0.0 0.00 0.00 0.00 83 1010.4
20260508083559 8 221 4.8 16.1 0.00 0.00 0.00 82 1012.2
20260508083500 8 220 0.0 0.0 0.00 0.00 0.00 83 1010.5
20260508083108 8 218 6.4 16.1 0.00 0.00 0.00 82 1012.3
20260508083059 8 220 0.0 0.0 0.00 0.00 0.00 82 1010.5
20260508082559 8 221 0.0 0.0 0.00 0.00 0.00 83 1010.6
20260508082059 8 220 0.0 0.0 0.00 0.00 0.00 83 1010.6
20260508081610 8 220 0.0 0.0 0.00 0.00 0.00 83 1010.5
20260508081600 8 195 4.8 11.3 0.00 0.00 0.00 82 1012.3
20260508081059 8 220 0.0 0.0 0.00 0.00 0.00 83 1010.7
20260508080559 8 250 4.8 12.9 0.00 0.00 0.00 82 1012.3
20260508080557 8 220 0.0 0.0 0.00 0.00 0.00 83 1010.7
20260508080111 8 234 4.8 14.5 0.00 0.00 0.00 82 1012.3
20260508075602 8 210 6.4 14.5 0.00 0.00 0.00 82 1012.3
20260508075059 8 193 6.4 14.5 0.00 0.00 0.00 82 1012.4
20260508075056 8 220 0.0 0.0 0.00 0.00 0.00 82 1010.8
20260508074619 8 228 8.0 19.3 0.00 0.00 0.00 82 1012.5
20260508074557 8 221 0.0 0.0 0.00 0.00 0.00 82 1010.8
20260508074059 8 205 8.0 19.3 0.00 0.00 0.00 81 1012.5
20260508074055 8 236 0.0 0.0 0.00 0.00 0.00 82 1010.9
20260508073601 8 200 6.4 14.5 0.00 0.00 0.00 81 1012.5
20260508073555 8 237 0.0 0.0 0.00 0.00 0.00 82 1010.8
20260508073104 8 238 0.0 0.0 0.00 0.00 0.00 82 1010.9
20260508073100 8 223 4.8 14.5 0.00 0.00 0.00 81 1012.7
20260508072602 8 204 6.4 14.5 0.00 0.00 0.00 81 1012.6
20260508072554 8 227 0.0 0.0 0.00 0.00 0.00 82 1010.9
20260508072059 8 206 6.4 14.5 0.00 0.00 0.00 82 1012.5
20260508072053 8 227 0.0 0.0 0.00 0.00 0.00 82 1010.9
20260508071612 8 227 0.0 0.0 0.00 0.00 0.00 82 1010.9
20260508071600 8 222 6.4 14.5 0.00 0.00 0.00 82 1012.6
20260508071100 8 214 6.4 12.9 0.00 0.00 0.00 81 1012.6
20260508071052 8 227 0.0 0.0 0.00 0.00 0.00 82 1010.9
20260508070600 8 229 4.8 14.5 0.00 0.00 0.00 81 1012.7
20260508070553 8 227 0.0 0.0 0.00 0.00 0.00 81 1010.9
20260508070104 8 231 6.4 14.5 0.00 0.00 0.00 80 1012.7
20260508070059 8 227 0.0 0.0 0.00 0.00 0.00 81 1010.9
20260508065559 8 216 8.0 17.7 0.00 0.00 0.00 80 1012.8
20260508065551 8 227 0.0 0.0 0.00 0.00 0.00 81 1011.0
20260508065103 8 225 6.4 19.3 0.00 0.00 0.00 80 1012.9
20260508065048 8 229 0.0 0.0 0.00 0.00 0.00 80 1011.0
20260508064601 8 225 8.0 19.3 0.00 0.00 0.00 79 1012.9
20260508064548 8 229 0.0 0.0 0.00 0.00 0.00 80 1011.1
20260508064111 8 237 8.0 19.3 0.00 0.00 0.00 79 1012.9
20260508064047 8 229 0.0 0.0 0.00 0.00 0.00 80 1011.1
20260508063559 8 219 8.0 19.3 0.00 0.00 0.00 79 1012.9
20260508063547 8 229 0.0 0.0 0.00 0.00 0.00 80 1011.1
20260508063101 8 215 6.4 17.7 0.00 0.00 0.00 79 1012.9
20260508063047 8 229 0.0 0.0 0.00 0.00 0.00 79 1011.1
20260508062559 8 211 6.4 14.5 0.00 0.00 0.00 78 1012.8
20260508062546 8 229 0.0 0.0 0.00 0.00 0.00 79 1011.1
20260508062104 8 208 6.4 17.7 0.00 0.00 0.00 78 1012.9
20260508062046 8 238 0.0 0.0 0.00 0.00 0.00 79 1011.1
20260508061559 9 196 6.4 17.7 0.00 0.00 0.00 78 1013.0
20260508061547 9 238 0.0 0.0 0.00 0.00 0.00 78 1011.1
20260508061102 9 233 8.0 17.7 0.00 0.00 0.00 78 1012.9
20260508061045 9 238 0.0 0.0 0.00 0.00 0.00 78 1011.1
20260508060603 9 240 8.0 17.7 0.00 0.00 0.00 78 1013.0
20260508060543 9 236 0.0 0.0 0.00 0.00 0.00 78 1011.2
20260508060045 9 235 0.0 0.0 0.00 0.00 0.00 78 1011.2
20260508055602 9 220 8.0 17.7 0.00 0.00 0.00 78 1013.0
20260508055544 9 236 0.0 0.0 0.00 0.00 0.00 78 1011.3
20260508055142 9 236 0.0 0.0 0.00 0.00 0.00 78 1011.3
20260508055102 9 226 8.0 19.3 0.00 0.00 0.00 77 1013.1
20260508054602 9 236 8.0 19.3 0.00 0.00 0.00 76 1013.0
20260508054548 9 236 0.0 0.0 0.00 0.00 0.00 77 1011.2
20260508054105 10 217 8.0 20.9 0.00 0.00 0.00 76 1012.9
20260508054039 10 236 0.0 0.0 0.00 0.00 0.00 76 1011.0
20260508053604 10 211 8.0 25.7 0.00 0.00 0.00 75 1013.0
20260508053539 10 231 0.0 1.6 0.00 0.00 0.00 75 1011.2
20260508053106 10 238 8.0 25.7 0.00 0.00 0.00 74 1013.1
20260508053041 10 235 0.0 1.6 0.00 0.00 0.00 74 1011.3
20260508052600 10 236 9.7 24.1 0.00 0.00 0.00 73 1013.1
20260508052538 10 240 0.0 1.6 0.00 0.00 0.00 73 1011.3
20260508052102 10 215 9.7 17.7 0.00 0.00 0.00 72 1013.2
20260508052037 10 209 0.0 1.6 0.00 0.00 0.00 73 1011.3
20260508051617 10 196 8.0 17.7 0.00 0.00 0.00 72 1013.1
20260508051541 10 188 0.0 1.6 0.00 0.00 0.00 73 1011.3
20260508051102 10 220 9.7 24.1 0.00 0.00 0.00 72 1013.2
20260508051037 10 198 0.0 1.6 0.00 0.00 0.00 72 1011.3
20260508050600 10 186 11.3 24.1 0.00 0.00 0.00 72 1013.1
20260508050538 10 216 0.0 1.6 0.00 0.00 0.00 73 1011.2
20260508050113 10 211 8.0 22.5 0.00 0.00 0.00 73 1013.1
20260508050039 10 193 0.0 0.0 0.00 0.00 0.00 73 1011.3
20260508045559 10 195 6.4 17.7 0.00 0.00 0.00 73 1013.1
20260508045535 10 190 0.0 0.0 0.00 0.00 0.00 73 1011.3
20260508045101 10 193 6.4 12.9 0.00 0.00 0.00 73 1013.1
20260508045038 10 190 0.0 0.0 0.00 0.00 0.00 73 1011.4
20260508044559 10 200 4.8 12.9 0.00 0.00 0.00 73 1013.1
20260508044535 10 190 0.0 0.0 0.00 0.00 0.00 74 1011.4
20260508044100 10 225 4.8 12.9 0.00 0.00 0.00 73 1013.2
20260508044038 10 219 0.0 0.0 0.00 0.00 0.00 73 1011.3
20260508043559 10 213 6.4 12.9 0.00 0.00 0.00 73 1013.2
20260508043533 10 219 0.0 0.0 0.00 0.00 0.00 73 1011.4
20260508043105 10 209 4.8 12.9 0.00 0.00 0.00 72 1013.1
20260508043033 10 220 0.0 0.0 0.00 0.00 0.00 73 1011.4
20260508042602 10 196 6.4 12.9 0.00 0.00 0.00 72 1013.1
20260508042543 10 220 0.0 0.0 0.00 0.00 0.00 73 1011.3
20260508042102 10 210 6.4 12.9 0.00 0.00 0.00 72 1013.1
20260508042031 10 220 0.0 0.0 0.00 0.00 0.00 73 1011.3
20260508041604 10 220 4.8 12.9 0.00 0.00 0.00 72 1013.2
20260508041536 10 220 0.0 0.0 0.00 0.00 0.00 73 1011.3
20260508041103 10 211 4.8 12.9 0.00 0.00 0.00 72 1013.2
20260508041031 10 219 0.0 0.0 0.00 0.00 0.00 72 1011.4
20260508040602 10 229 4.8 14.5 0.00 0.00 0.00 71 1013.2
20260508040531 10 219 0.0 0.0 0.00 0.00 0.00 72 1011.5
20260508040109 10 215 6.4 14.5 0.00 0.00 0.00 71 1013.3
20260508040034 10 219 0.0 0.0 0.00 0.00 0.00 72 1011.5
20260508035558 10 187 6.4 12.9 0.00 0.00 0.00 71 1013.1
20260508035529 10 220 0.0 0.0 0.00 0.00 0.00 72 1011.3
20260508035059 10 221 4.8 14.5 0.00 0.00 0.00 71 1013.3
20260508035029 10 220 0.0 0.0 0.00 0.00 0.00 71 1011.5
20260508034600 10 236 6.4 16.1 0.00 0.00 0.00 70 1013.4
20260508034536 10 220 0.0 0.0 0.00 0.00 0.00 71 1011.7
20260508034101 10 197 6.4 16.1 0.00 0.00 0.00 70 1013.4
20260508034029 10 220 0.0 0.0 0.00 0.00 0.00 70 1011.6
20260508033602 10 225 6.4 16.1 0.00 0.00 0.00 69 1013.5
20260508033528 10 220 0.0 0.0 0.00 0.00 0.00 70 1011.7
20260508033100 10 221 6.4 16.1 0.00 0.00 0.00 69 1013.3
20260508033029 10 220 0.0 0.0 0.00 0.00 0.00 69 1011.7
20260508032559 10 230 6.4 16.1 0.00 0.00 0.00 68 1013.3
20260508032528 10 220 0.0 0.0 0.00 0.00 0.00 69 1011.7
20260508032059 10 205 8.0 16.1 0.00 0.00 0.00 68 1013.4
20260508032028 10 220 0.0 0.0 0.00 0.00 0.00 68 1011.7
20260508031559 10 227 6.4 14.5 0.00 0.00 0.00 68 1013.4
20260508031528 10 220 0.0 0.0 0.00 0.00 0.00 69 1011.7
20260508031059 10 202 6.4 16.1 0.00 0.00 0.00 69 1013.4
20260508031027 10 220 0.0 0.0 0.00 0.00 0.00 69 1011.7
20260508030559 10 217 4.8 16.1 0.00 0.00 0.00 68 1013.4
20260508030527 10 220 0.0 0.0 0.00 0.00 0.00 69 1011.6
20260508030058 10 219 8.0 19.3 0.00 0.00 0.00 68 1013.4
20260508030029 10 220 0.0 0.0 0.00 0.00 0.00 69 1011.5
20260508025600 10 213 8.0 19.3 0.00 0.00 0.00 68 1013.5
20260508025530 10 222 0.0 0.0 0.00 0.00 0.00 68 1011.8
20260508025100 10 236 6.4 17.7 0.00 0.00 0.00 68 1013.6
20260508025027 10 223 0.0 0.0 0.00 0.00 0.00 68 1011.8
20260508024559 11 217 8.0 20.9 0.00 0.00 0.00 66 1013.6
20260508024528 11 223 0.0 0.0 0.00 0.00 0.00 67 1012.0
20260508024100 11 226 9.7 20.9 0.00 0.00 0.00 66 1013.7
20260508024026 11 221 0.0 0.0 0.00 0.00 0.00 67 1012.0
20260508023558 11 227 9.7 20.9 0.00 0.00 0.00 67 1013.7
20260508023526 11 219 0.0 0.0 0.00 0.00 0.00 67 1011.9
20260508023100 11 244 6.4 20.9 0.00 0.00 0.00 67 1013.7
20260508023034 11 225 0.0 1.6 0.00 0.00 0.00 67 1011.9
20260508022559 11 232 8.0 22.5 0.00 0.00 0.00 66 1013.6
20260508022526 11 236 0.0 1.6 0.00 0.00 0.00 67 1011.9
20260508022100 11 210 9.7 27.4 0.00 0.00 0.00 66 1013.5
20260508022026 11 256 0.0 1.6 0.00 0.00 0.00 66 1011.9
20260508021557 11 211 6.4 27.4 0.00 0.00 0.00 66 1013.6
20260508021526 11 228 0.0 1.6 0.00 0.00 0.00 67 1011.9
20260508021059 11 214 14.5 27.4 0.00 0.00 0.00 65 1013.6
20260508021025 11 228 0.0 1.6 0.00 0.00 0.00 65 1011.8
20260508020559 11 193 11.3 25.7 0.00 0.00 0.00 64 1013.5
20260508020525 11 226 0.0 1.6 0.00 0.00 0.00 64 1011.8
20260508020100 11 243 11.3 25.7 0.00 0.00 0.00 64 1013.5
20260508020025 11 217 0.0 1.6 0.00 0.00 0.00 64 1011.7
20260508015559 11 227 12.9 30.6 0.00 0.00 0.00 62 1013.5
20260508015525 11 239 0.0 1.6 0.00 0.00 0.00 63 1011.8
20260508015100 11 238 9.7 33.8 0.00 0.00 0.00 62 1013.5
20260508015025 11 231 0.0 1.6 0.00 0.00 0.00 63 1011.8
20260508014558 11 248 14.5 33.8 0.00 0.00 0.00 61 1013.4
20260508014526 11 263 0.0 1.6 0.00 0.00 0.00 61 1011.8
20260508014100 11 241 11.3 27.4 0.00 0.00 0.00 61 1013.4
20260508014025 11 248 0.0 1.6 0.00 0.00 0.00 61 1011.8
20260508013602 11 161 12.9 27.4 0.00 0.00 0.00 61 1013.5
20260508013524 11 246 0.0 1.6 0.00 0.00 0.00 61 1011.7
20260508013057 11 208 8.0 27.4 0.00 0.00 0.00 61 1013.4
20260508013024 11 260 0.0 1.6 0.00 0.00 0.00 61 1011.5
20260508012559 11 263 11.3 30.6 0.00 0.00 0.00 59 1013.3
20260508012527 11 256 0.0 6.4 0.00 0.00 0.00 60 1011.5
20260508012059 12 236 11.3 30.6 0.00 0.00 0.00 58 1013.2
20260508012025 12 272 1.6 14.5 0.00 0.00 0.00 58 1011.5
20260508011559 12 258 14.5 40.2 0.00 0.00 0.00 57 1013.0
20260508011524 12 244 1.6 14.5 0.00 0.00 0.00 57 1011.4
20260508011058 12 240 19.3 40.2 0.00 0.00 0.00 54 1013.0
20260508011022 12 246 4.8 12.9 0.00 0.00 0.00 55 1011.2
20260508010600 12 256 16.1 30.6 0.00 0.00 0.00 53 1012.9
20260508010522 12 250 4.8 12.9 0.00 0.00 0.00 53 1011.2
20260508010057 12 213 8.0 22.5 0.00 0.00 0.00 53 1012.8
20260508010027 12 239 0.0 0.0 0.00 0.00 0.00 54 1011.0
20260508005603 12 234 9.7 17.7 0.00 0.00 0.00 53 1012.6
20260508005523 12 288 0.0 0.0 0.00 0.00 0.00 54 1010.8
20260508005104 12 229 3.2 14.5 0.00 0.00 0.00 56 1012.6
20260508005023 12 295 0.0 0.0 0.00 0.00 0.00 56 1010.9
20260508004602 12 232 3.2 14.5 0.00 0.00 0.00 54 1012.5
20260508004523 12 295 0.0 0.0 0.00 0.00 0.00 54 1010.9
20260508004100 12 232 3.2 11.3 0.00 0.00 0.00 52 1012.5
20260508004023 12 295 0.0 0.0 0.00 0.00 0.00 52 1010.9
20260508003603 12 235 3.2 8.0 0.00 0.00 0.00 52 1012.5
20260508003522 12 296 0.0 0.0 0.00 0.00 0.00 53 1011.0
20260508003100 12 245 3.2 8.0 0.00 0.00 0.00 52 1012.6
20260508003023 12 296 0.0 0.0 0.00 0.00 0.00 53 1011.0
20260508002559 12 237 3.2 6.4 0.00 0.00 0.00 51 1012.4
20260508002521 12 296 0.0 0.0 0.00 0.00 0.00 51 1010.9
20260508002059 12 236 1.6 4.8 0.00 0.00 0.00 51 1012.4
20260508002021 12 296 0.0 0.0 0.00 0.00 0.00 51 1010.8
20260508001600 12 259 1.6 4.8 0.00 0.00 0.00 52 1012.4
20260508001538 12 296 0.0 0.0 0.00 0.00 0.00 53 1010.8
20260508001103 12 254 0.0 6.4 0.00 0.00 0.00 53 1012.4
20260508001021 12 296 0.0 0.0 0.00 0.00 0.00 55 1010.7
20260508000602 12 0 0.0 6.4 0.00 0.00 0.00 61 1012.3
20260508000521 12 296 0.0 0.0 0.00 0.00 0.00 60 1010.8
20260508000020 12 296 0.0 0.0 0.00 0.00 0.00 57 1010.7
20260507235600 12 0 0.0 3.2 0.00 0.00 0.00 53 1012.4
20260507235523 12 296 0.0 0.0 0.00 0.00 0.00 54 1010.7
20260507235059 12 352 0.0 3.2 0.00 0.00 0.00 54 1012.3
20260507235024 12 296 0.0 0.0 0.00 0.00 0.00 55 1010.7
20260507234603 12 0 0.0 1.6 0.00 0.00 0.00 53 1012.3
20260507234523 12 296 0.0 0.0 0.00 0.00 0.00 55 1010.7
20260507234105 12 0 0.0 1.6 0.00 0.00 0.00 52 1012.4
20260507234020 12 296 0.0 0.0 0.00 0.00 0.00 53 1010.7
20260507233602 12 352 0.0 1.6 0.00 0.00 0.00 55 1012.4
20260507233519 12 296 0.0 0.0 0.00 0.00 0.00 56 1010.7
20260507233117 12 0 0.0 1.6 0.00 0.00 0.00 54 1012.4
20260507233024 12 296 0.0 0.0 0.00 0.00 0.00 56 1010.7
20260507232600 12 0 0.0 6.4 0.00 0.00 0.00 55 1012.4
20260507232519 12 296 0.0 0.0 0.00 0.00 0.00 55 1010.7
20260507232059 12 352 0.0 6.4 0.00 0.00 0.00 52 1012.5
20260507232018 12 296 0.0 0.0 0.00 0.00 0.00 53 1010.7
20260507231602 13 352 0.0 6.4 0.00 0.00 0.00 49 1012.4
20260507231521 13 296 0.0 0.0 0.00 0.00 0.00 49 1010.8
20260507231059 13 0 0.0 3.2 0.00 0.00 0.00 51 1012.5
20260507231016 13 296 0.0 0.0 0.00 0.00 0.00 51 1010.8
20260507230600 13 320 0.0 1.6 0.00 0.00 0.00 50 1012.5
20260507230518 13 296 0.0 0.0 0.00 0.00 0.00 51 1010.9
20260507230101 13 0 0.0 4.8 0.00 0.00 0.00 49 1012.6
20260507230025 13 296 0.0 1.6 0.00 0.00 0.00 50 1010.9
20260507225559 13 0 0.0 4.8 0.00 0.00 0.00 46 1012.6
20260507225516 13 295 0.0 1.6 0.00 0.00 0.00 48 1010.8
20260507225059 13 0 0.0 6.4 0.00 0.00 0.00 48 1012.6
20260507225019 13 290 0.0 1.6 0.00 0.00 0.00 49 1010.8
20260507224559 13 252 0.0 9.7 0.00 0.00 0.00 43 1012.6
20260507224526 13 293 0.0 1.6 0.00 0.00 0.00 44 1010.9
20260507224059 13 336 3.2 9.7 0.00 0.00 0.00 49 1012.7
20260507224016 13 315 0.0 1.6 0.00 0.00 0.00 48 1010.8
20260507223602 14 11 0.0 8.0 0.00 0.00 0.00 45 1012.7
20260507223518 13 296 0.0 1.6 0.00 0.00 0.00 45 1010.9
20260507223116 13 5 1.6 19.3 0.00 0.00 0.00 46 1012.7
20260507223016 13 296 0.0 8.0 0.00 0.00 0.00 44 1010.9
20260507222600 13 259 4.8 19.3 0.00 0.00 0.00 48 1012.7
20260507222516 13 311 0.0 8.0 0.00 0.00 0.00 48 1010.9
20260507222059 13 26 3.2 11.3 0.00 0.00 0.00 47 1012.7
20260507222015 13 273 0.0 1.6 0.00 0.00 0.00 48 1011.0
20260507221608 13 345 1.6 11.3 0.00 0.00 0.00 47 1012.7
20260507221522 13 338 0.0 8.0 0.00 0.00 0.00 48 1011.0
20260507221059 13 0 1.6 12.9 0.00 0.00 0.00 47 1012.7
20260507221014 13 294 1.6 8.0 0.00 0.00 0.00 48 1011.0
20260507220559 13 0 1.6 14.5 0.00 0.00 0.00 48 1012.7
20260507220513 13 296 0.0 8.0 0.00 0.00 0.00 48 1010.8
20260507220017 13 317 0.0 8.0 0.00 0.00 0.00 49 1010.9
20260507215600 13 9 3.2 14.5 0.00 0.00 0.00 49 1012.7
20260507215515 13 348 0.0 8.0 0.00 0.00 0.00 49 1010.9
20260507215100 13 208 3.2 12.9 0.00 0.00 0.00 49 1012.5
20260507215017 13 313 0.0 11.3 0.00 0.00 0.00 49 1010.9
20260507214604 13 236 1.6 11.3 0.00 0.00 0.00 46 1012.5
20260507214513 13 304 0.0 11.3 0.00 0.00 0.00 46 1010.8
20260507214059 13 339 1.6 14.5 0.00 0.00 0.00 47 1012.5
20260507214013 13 298 3.2 11.3 0.00 0.00 0.00 48 1010.9
20260507213559 13 320 1.6 16.1 0.00 0.00 0.00 46 1012.5
20260507213513 13 304 3.2 12.9 0.00 0.00 0.00 47 1010.9
20260507213107 13 342 3.2 16.1 0.00 0.00 0.00 45 1012.6
20260507213012 13 315 4.8 12.9 0.00 0.00 0.00 46 1010.9
20260507212559 13 41 3.2 16.1 0.00 0.00 0.00 47 1012.5
20260507212512 13 289 0.0 12.9 0.00 0.00 0.00 49 1011.0
20260507212059 13 17 3.2 19.3 0.00 0.00 0.00 45 1012.7
20260507212015 13 320 0.0 20.9 0.00 0.00 0.00 47 1010.9
20260507211612 13 24 3.2 19.3 0.00 0.00 0.00 46 1012.6
20260507211527 13 303 6.4 20.9 0.00 0.00 0.00 45 1010.9
20260507211059 14 284 8.0 19.3 0.00 0.00 0.00 43 1012.6
20260507211015 14 313 6.4 17.7 0.00 0.00 0.00 45 1010.9
20260507210600 15 259 6.4 19.3 0.00 0.00 0.00 43 1012.5
20260507210511 15 291 9.7 16.1 0.00 0.00 0.00 45 1010.9
20260507210116 14 219 1.6 14.5 0.00 0.00 0.00 45 1012.6
20260507210011 14 319 1.6 9.7 0.00 0.00 0.00 45 1010.9
20260507205605 13 99 1.6 14.5 0.00 0.00 0.00 49 1012.5
20260507205511 13 300 0.0 11.3 0.00 0.00 0.00 49 1010.9
20260507205101 14 245 3.2 14.5 0.00 0.00 0.00 47 1012.5
20260507205011 14 293 1.6 9.7 0.00 0.00 0.00 46 1010.9
20260507204601 14 331 1.6 14.5 0.00 0.00 0.00 50 1012.6
20260507204510 14 311 3.2 9.7 0.00 0.00 0.00 50 1010.9
20260507204103 13 305 1.6 14.5 0.00 0.00 0.00 47 1012.5
20260507204010 13 360 0.0 16.1 0.00 0.00 0.00 48 1010.9
20260507203601 13 0 3.2 14.5 0.00 0.00 0.00 46 1012.6
20260507203510 13 290 9.7 16.1 0.00 0.00 0.00 47 1010.9
20260507203101 13 0 1.6 14.5 0.00 0.00 0.00 53 1012.7
20260507203009 13 298 0.0 3.2 0.00 0.00 0.00 51 1011.0
20260507202606 12 0 3.2 14.5 0.00 0.00 0.00 51 1012.7
20260507202509 13 5 0.0 16.1 0.00 0.00 0.00 50 1011.0
20260507202101 13 341 3.2 16.1 0.00 0.00 0.00 47 1012.6
20260507202009 13 298 6.4 17.7 0.00 0.00 0.00 48 1011.0
20260507201600 13 246 1.6 16.1 0.00 0.00 0.00 49 1012.7
20260507201512 13 301 0.0 17.7 0.00 0.00 0.00 49 1010.9
20260507201101 13 274 1.6 14.5 0.00 0.00 0.00 47 1012.7
20260507201009 13 312 1.6 14.5 0.00 0.00 0.00 52 1011.0
20260507200602 13 251 1.6 16.1 0.00 0.00 0.00 48 1012.9
20260507200509 13 294 0.0 16.1 0.00 0.00 0.00 50 1011.0
20260507200106 13 326 3.2 16.1 0.00 0.00 0.00 46 1012.9
20260507200009 13 328 9.7 16.1 0.00 0.00 0.00 47 1011.1
20260507195601 13 316 3.2 16.1 0.00 0.00 0.00 46 1012.7
20260507195508 13 302 4.8 12.9 0.00 0.00 0.00 48 1011.0
20260507195058 13 277 1.6 14.5 0.00 0.00 0.00 47 1012.8
20260507195009 13 338 0.0 9.7 0.00 0.00 0.00 48 1010.9
20260507194601 13 235 3.2 16.1 0.00 0.00 0.00 47 1012.7
20260507194508 13 288 1.6 16.1 0.00 0.00 0.00 49 1010.9
20260507194100 12 314 4.8 24.1 0.00 0.00 0.00 48 1012.9
20260507194008 12 299 4.8 16.1 0.00 0.00 0.00 48 1011.0
20260507193600 13 288 4.8 24.1 0.00 0.00 0.00 49 1012.9
20260507193506 13 339 0.0 14.5 0.00 0.00 0.00 49 1011.1
20260507193059 13 252 6.4 20.9 0.00 0.00 0.00 47 1012.9
20260507193006 13 284 6.4 24.1 0.00 0.00 0.00 44 1011.0
20260507192605 14 296 9.7 24.1 0.00 0.00 0.00 45 1011.2
20260507192600 14 255 3.2 19.3 0.00 0.00 0.00 45 1013.0
20260507192101 14 251 1.6 19.3 0.00 0.00 0.00 48 1012.9
20260507192006 13 279 3.2 24.1 0.00 0.00 0.00 47 1011.1
20260507191603 13 283 4.8 19.3 0.00 0.00 0.00 45 1013.1
20260507191505 13 299 14.5 24.1 0.00 0.00 0.00 45 1011.2
20260507191102 13 269 3.2 19.3 0.00 0.00 0.00 45 1013.0
20260507191004 13 346 4.8 19.3 0.00 0.00 0.00 44 1011.2
20260507190601 13 71 1.6 20.9 0.00 0.00 0.00 45 1013.1
20260507190504 13 324 4.8 19.3 0.00 0.00 0.00 47 1011.2
20260507190110 13 269 8.0 22.5 0.00 0.00 0.00 45 1013.1
20260507190005 13 281 11.3 17.7 0.00 0.00 0.00 46 1011.3
20260507185601 13 232 8.0 22.5 0.00 0.00 0.00 45 1013.1